Regional Weather Roundup
Issued by NWS Grand Forks, ND

Home | Current Version | Previous Version | Text Only | Print | Product List | Glossary Off
Versions: 1 2 3 4 5 6 7 8 9 10 11 12 13 14 15 16 17 18 19 20 21 22 23 24 25 26 27 28 29 30 31 32 33 34 35 36 37 38 39 40 41 42 43 44 45 46 47 48 49 50

000
ASUS43 KFGF 222031
RWRFGF
PRAIRIE TO PINES  WEATHER ROUNDUP
NATIONAL WEATHER SERVICE EASTERN NORTH DAKOTA/GRAND FORKS ND
300 PM CDT WED OCT 22 2014

 **SATELLITE DATA USED TO AUGMENT SKY COVER AT AUTOMATED STATIONS**
 *****  WEATHER ACROSS EASTERN NORTH DAKOTA  *****

CITY           SKY/WX    TMP DP  RH WIND       PRES   REMARKS
GRAND FORKS    CLOUDY    62  47  57 S15G24    29.79F
GRAND FRKS AFB DRIZZLE   63  48  59 S12       29.79S
GRAND FRKS NWS   N/A     61 N/A N/A S23         N/A
DEVILS LAKE    CLOUDY    55  46  71 SW10      29.77F
FARGO          CLOUDY    67  48  50 S15G29    29.83F
WAHPETON ARPT  CLOUDY    66  46  48 S15       29.86F
$$

 ***** WEATHER ACROSS CENTRAL AND WESTERN NORTH DAKOTA  *****

CITY           SKY/WX    TMP DP  RH WIND       PRES   REMARKS
BISMARCK       PTSUNNY   64  41  42 W15       29.84F
MINOT          PTSUNNY   63  41  44 SW18G26   29.76S
JAMESTOWN      LGT RAIN  54  50  86 W7        29.83F
MINOT AFB      PTSUNNY   62  44  50 W25       29.74F
GARRISON         N/A     65  40  39 W17G25    29.79S
WILLISTON      PTSUNNY   59  41  51 W25       29.81S
DICKINSON      SUNNY     63  35  35 W22G32    29.85S
HETTINGER      SUNNY     63  32  31 W21G30    29.91F
$$

 *****  OTHER AIRPORT OBSERVATIONS IN OUR AREA  *****

CITY           SKY/WX    TMP DP  RH WIND       PRES   REMARKS
WALHALLA         N/A     61  48  63 S14G22    29.75R
GRAFTON AIRPOR FAIR      64  48  55 S17       29.76S
VALLEY CITY AR LGT RAIN  55  55 100 W7        29.83F
CANDO          FAIR      55  48  76 SW8       29.77R
CAVALIER APRT  MOCLDY    63  48  59 S16G28    29.75R
GWINNER        CLOUDY    55  54  94 SW6       29.87F
SHEYENNE NWR     N/A     63  48  59 W14       29.95
ROLLA          FAIR      55  45  67 W13G25    29.74R
 ***** THE ABOVE OBSERVATIONS ARE NON NWS ARE NOT QUALITY
       CONTROLLED AND MAY MIS-REPORT RAIN FOR SNOW...
$$

  *****  WEATHER ACROSS NORTHERN MINNESOTA  *****

CITY           SKY/WX    TMP DP  RH WIND       PRES   REMARKS
FLAG ISLAND    PTSUNNY   54  46  76 SE20      29.80F
WARROAD        MOSUNNY   64  48  55 SE15G24   29.82F
ROSEAU         PTSUNNY   64  48  55 S22G30    29.81S
HALLOCK        PTSUNNY   64  46  52 S25G36    29.76S
THF RVR FALLS  PTSUNNY   63  46  55 S22       29.82F
BAUDETTE       PTSUNNY   62  44  51 S16G25    29.87F
WASKISH        PTSUNNY   61  45  55 S9G18     29.90R
CROOKSTON      CLOUDY    64  46  52 SW24G30   29.83S
STEPHEN NDAWN    N/A     63  48  59 S22         N/A
GREENBUSH NDAW   N/A     64  46  52 S21         N/A
$$
  *****  WEATHER ACROSS CENTRAL AND WEST MINNESOTA  *****

CITY           SKY/WX    TMP DP  RH WIND       PRES   REMARKS
FOSSTON        CLOUDY    61  45  55 S22       29.87S
BEMIDJI        PTSUNNY   60  44  55 S18G25    29.90F
PARK RAPIDS    CLOUDY    59  43  55 S20       29.93F
ELBOW LAKE     FAIR      64  47  53 S23       29.89F
WADENA         CLOUDY    61  45  55 S15G25    29.93F
DETROIT LAKES  CLOUDY    61  45  55 S18G24    29.90F
MOORHEAD       CLOUDY    66  48  52 S17G25    29.84F
FERGUS FALLS   CLOUDY    64  43  45 S21G26    29.89F
MORRIS MN      CLOUDY    66  50  55 S20G25    29.90S
STAPLES        PTSUNNY   57  43  58 SE13      29.96F
$$
  *****  WEATHER ELSEWHERE ACROSS MINNESOTA  *****

CITY           SKY/WX    TMP DP  RH WIND       PRES   REMARKS
DULUTH         PTSUNNY   56  38  50 S15       30.08F
INTRNTL FALLS  MOSUNNY   62  42  47 S10G26    29.92F
ELY            CLOUDY    55  36  47 S15G21    30.05F
CLOQUET        CLOUDY    55  37  50 S13G18    30.07F
WHEATON        PTSUNNY   64  48  55 S15       29.89S
BRAINERD       MOSUNNY   57  42  57 SE18G30   29.99F
HIBBING        CLOUDY    59  39  47 S15G25    30.02F
ALEXANDRIA     PTSUNNY   61  44  53 S20G25    29.95F
SAINT CLOUD    MOSUNNY   62  42  47 SE23      30.01F
MINNEAPOLIS    PTSUNNY   58  41  53 SE20G28   30.09F
$$

  *****  WEATHER ACROSS SOUTH DAKOTA  *****

CITY           SKY/WX    TMP DP  RH WIND       PRES   REMARKS
SIOUX FALLS    CLOUDY    70  52  52 S14G24    29.92F
BROOKINGS      NOT AVBL
WATERTOWN      CLOUDY    64  51  62 S14       29.89F
HURON          CLOUDY    56  54  93 MISG      29.92R
SISSETON         N/A     67  52  58 SW13      29.86F
ABERDEEN       CLOUDY    57  53  86 SW7       29.90R
MITCHELL       LGT RAIN  56  55  97 S3        29.94F FOG
PIERRE         MOSUNNY   63  44  50 W13       29.93S
MOBRIDGE       CLOUDY    63  45  51 W12       29.87F
RAPID CITY     SUNNY     64  29  26 SE3       29.99F
$$

  *****  SOME WEATHER IN NEARBY STATES *****

CITY           SKY/WX    TMP DP  RH WIND       PRES   REMARKS
GLASGOW MT     SUNNY     63  33  32 W20G28    29.85S
GREAT FALLS MT SUNNY     57  33  40 SW24G32   29.88F
CHEYENNE WY    PTSUNNY   62  35  36 SW10      30.09F
SCOTTSBLUFF NE SUNNY     65  30  27 NW14      30.05F
OMAHA NE       MOSUNNY   74  52  46 S22       30.01F
DES MOINES IA  PTSUNNY   65  46  50 SE15      30.14F
DAVENPORT IA   SUNNY     60  38  43 S9        30.25F
CHICAGO IL     MOSUNNY   55  38  52 VRB6      30.30F
EAU CLAIRE WI  SUNNY     59  34  39 SE15      30.18F
LA CROSSE WI   SUNNY     60  38  43 S13       30.21F
$$

  *****  SOME NATIONAL WEATHER *****

CITY           SKY/WX    TMP DP  RH WIND       PRES   REMARKS
LA GUARDIA NY  CLOUDY    57  47  69 N15G23    29.83F
RALEIGH NC     PTSUNNY   66  41  40 N9G21     29.97S
ATLANTA GA     SUNNY     69  38  32 N8        30.07S
NEW ORLEANS LA SUNNY     78  55  44 N9        30.04S
OKLAHOMA CITY  PTSUNNY   77  56  48 S14       30.09F
ALBUQUERQUE NM PTSUNNY   69  44  40 W5        30.16F
SALT LAKE CITY MOSUNNY   59  29  31 CALM      30.17F
LOS ANGELES CA MOSUNNY   76  60  57 W12       29.92
BOISE ID       CLOUDY    61  32  33 SE18      30.09F
SEATTLE WA     LGT RAIN  55  54  94 S3        29.71F
$$

*** WEATHER ACROSS MANITOBA...SASKATCHEWAN AND ONTARIO ***
                ***ONTARIO***

CITY           SKY/WX    TMP DP  RH WIND       PRES   REMARKS
GERALDTON      MOSUNNY   48  34  57 S12       30.20F
THUNDER BAY    MOSUNNY   50  37  62 SE10G18   30.20S
SIOUX LOOKOUT  MOSUNNY   61  39  44 S12G21    29.96F
TORONTO        PTSUNNY   54  41  62 N12G17    30.23S
BIG TROUT LK   SUNNY     55  41  58 S14G20    29.84F
PICKLE LAKE    MOSUNNY   57  39  51 S14G28    29.97F
DRYDEN         MOSUNNY   61  41  48 S13G23    29.92F
KENORA         PTSUNNY   59  43  55 S16       29.85
$$
                *** MANITOBA***

CITY           SKY/WX    TMP DP  RH WIND       PRES   REMARKS
BRANDON        PTSUNNY   59  46  63 W20       29.67S
DAUPHIN        MOSUNNY   63  48  59 W13       29.59F
ISLAND LAKE    PTSUNNY   59  45  58 S9        29.67F
PILOT MOUND      N/A     61  45  55 SW10        N/A
THE PAS        PTSUNNY   52  45  76 N7        29.58S
THOMPSON       PTSUNNY   52  45  76 E5        29.63R
WINNIPEG       LGT RAIN  59  48  67 S21G30    29.72R
LYNN LAKE      MOSUNNY   45  41  87 N10       29.67F
CHURCHILL      FOG       37  37 100 NE10      29.75R VSB 3/4
GILLAM         CLOUDY    46  41  81 NE5       29.69
$$
                ***SASKATCHEWAN***

CITY           SKY/WX    TMP DP  RH WIND       PRES   REMARKS
ESTEVAN        PTSUNNY   55  45  67 W24G32    29.74R
KINDERSLEY     MOSUNNY   59  39  47 SW10      29.75F
LLOYDMINSTER   MOSUNNY   61  34  36 S7        29.72
PRINCE ALBERT  LGT RAIN  48  46  93 W6        29.68F
REGINA         CLOUDY    50  46  87 W14G23    29.73R
YORKTON        MOSUNNY   59  46  63 W14G20    29.63R
N. BATTLEFORD  SUNNY     55  41  58 W7        29.75F
LA RONGE       PTSUNNY   52  46  82 NW6       29.68F
SASKATOON      PTSUNNY   52  45  76 N5        29.72S
SWIFT CURRENT  SUNNY     57  41  54 W17G23    29.77F
$$
NOTE: THESE ARE AUTOMATED STATIONS WITH LIMITED QUALITY CONTROL
      "FAIR" INDICATES FEW OR NO CLOUDS BELOW 12,000 FEET WITH NO
      SIGNIFICANT WEATHER AND/OR OBSTRUCTIONS TO VISIBILITY.
      SKY/WX - SKY CONDITION AND SIGNIFICANT WEATHER.
      TMP - AIR TEMPERATURE.    DP   - DEWPOINT TEMPERATURE.
      RH  - RELATIVE HUMIDITY.  PRES - PRESSURE.
      HX  - HEAT INDEX.         WCI  - WIND CHILL INDEX.
$



USA.gov is the U.S. government's official web portal to all federal, state and local government web resources and services.